TimeEST,TemperatureF,Dew PointF,Humidity,Sea Level PressureIn,VisibilityMPH,Wind Direction,Wind SpeedMPH,Gust SpeedMPH,PrecipitationIn,Events,Conditions,WindDirDegrees,DateUTC
12:53 AM,33.1,25.0,72,30.21,10.0,WNW,4.6,-,N/A,,Clear,300,2013-12-24 05:53:00
1:53 AM,33.1,25.0,72,30.21,10.0,WNW,4.6,-,N/A,,Clear,300,2013-12-24 06:53:00
2:53 AM,30.9,23.0,72,30.22,10.0,WNW,4.6,-,N/A,,Clear,300,2013-12-24 07:53:00
3:53 AM,30.9,21.9,69,30.21,10.0,NNW,5.8,-,N/A,,Clear,330,2013-12-24 08:53:00
4:53 AM,28.9,21.9,75,30.19,10.0,NW,4.6,-,N/A,,Clear,320,2013-12-24 09:53:00
5:53 AM,28.9,21.9,75,30.19,10.0,NW,4.6,-,N/A,,Clear,320,2013-12-24 10:53:00
6:53 AM,28.0,21.0,75,30.20,10.0,NW,4.6,-,N/A,,Clear,310,2013-12-24 11:53:00
7:53 AM,28.0,19.9,72,30.21,10.0,NW,5.8,-,N/A,,Clear,310,2013-12-24 12:53:00
8:53 AM,32.0,21.0,64,30.22,10.0,NW,4.6,-,N/A,,Clear,310,2013-12-24 13:53:00
9:53 AM,34.0,19.9,56,30.24,10.0,NW,15.0,-,N/A,,Partly Cloudy,320,2013-12-24 14:53:00
10:53 AM,36.0,21.0,55,30.22,10.0,NW,13.8,-,N/A,,Overcast,320,2013-12-24 15:53:00
11:53 AM,36.0,21.0,55,30.20,10.0,WNW,12.7,-,N/A,,Mostly Cloudy,300,2013-12-24 16:53:00
12:53 PM,35.1,21.0,57,30.19,10.0,WNW,15.0,21.9,N/A,,Overcast,290,2013-12-24 17:53:00
1:53 PM,36.0,19.9,52,30.18,10.0,WNW,13.8,-,N/A,,Overcast,290,2013-12-24 18:53:00
2:53 PM,36.0,19.9,52,30.19,10.0,WNW,15.0,-,N/A,,Mostly Cloudy,300,2013-12-24 19:53:00
3:12 PM,32.0,26.6,80,30.20,1.8,NW,18.4,29.9,0.00,Snow,Light Snow,310,2013-12-24 20:12:00
3:19 PM,30.2,26.6,86,30.20,0.8,NW,13.8,-,0.00,Snow,Light Snow,310,2013-12-24 20:19:00
3:26 PM,30.2,28.4,93,30.21,1.0,NW,18.4,23.0,0.00,Snow,Light Snow,310,2013-12-24 20:26:00
3:33 PM,30.2,28.4,93,30.21,0.5,NW,10.4,23.0,0.00,Fog-Snow,Snow,310,2013-12-24 20:33:00
3:46 PM,30.2,26.6,86,30.21,6.0,West,9.2,-,0.00,Snow,Light Snow,280,2013-12-24 20:46:00
3:53 PM,30.0,27.0,88,30.23,9.0,WNW,11.5,-,0.00,,Overcast,290,2013-12-24 20:53:00
4:53 PM,30.0,19.9,66,30.27,10.0,WNW,20.7,28.8,0.00,,Clear,300,2013-12-24 21:53:00
5:53 PM,28.0,12.9,53,30.30,10.0,WNW,19.6,28.8,N/A,,Clear,290,2013-12-24 22:53:00
6:53 PM,26.1,10.9,53,30.34,10.0,WNW,23.0,27.6,N/A,,Clear,300,2013-12-24 23:53:00
7:53 PM,24.1,10.0,55,30.38,10.0,WNW,18.4,26.5,N/A,,Clear,300,2013-12-25 00:53:00
8:53 PM,24.1,9.0,53,30.40,10.0,WNW,16.1,28.8,N/A,,Clear,300,2013-12-25 01:53:00
9:53 PM,23.0,9.0,55,30.40,10.0,NW,15.0,-,N/A,,Clear,310,2013-12-25 02:53:00
10:53 PM,21.9,10.0,60,30.43,10.0,WNW,15.0,-,N/A,,Clear,300,2013-12-25 03:53:00
11:53 PM,21.9,10.0,60,30.43,10.0,WNW,10.4,-,N/A,,Clear,300,2013-12-25 04:53:00